TimeCST,TemperatureF,Dew PointF,Humidity,Sea Level PressureIn,VisibilityMPH,Wind Direction,Wind SpeedMPH,Gust SpeedMPH,PrecipitationIn,Events,Conditions,WindDirDegrees,DateUTC
12:16 AM,26.6,17.6,69,30.07,10.0,SSE,8.1,-,N/A,,Clear,150,2013-01-10 06:16:00
12:37 AM,26.6,17.6,69,30.06,10.0,SE,6.9,-,N/A,,Clear,140,2013-01-10 06:37:00
12:57 AM,26.6,17.6,69,30.06,10.0,SE,10.4,-,N/A,,Clear,140,2013-01-10 06:57:00
1:16 AM,28.4,19.4,69,30.07,10.0,SSE,6.9,-,N/A,,Clear,150,2013-01-10 07:16:00
1:37 AM,28.4,19.4,69,30.07,10.0,SSE,9.2,16.1,N/A,,Clear,160,2013-01-10 07:37:00
1:57 AM,28.4,19.4,69,30.07,10.0,SSE,10.4,-,N/A,,Clear,150,2013-01-10 07:57:00
2:16 AM,28.4,19.4,69,30.05,10.0,SSE,10.4,16.1,N/A,,Clear,150,2013-01-10 08:16:00
2:37 AM,28.4,21.2,74,30.05,10.0,SSE,11.5,19.6,N/A,,Clear,150,2013-01-10 08:37:00
2:57 AM,28.4,21.2,74,30.04,10.0,SSE,9.2,17.3,N/A,,Clear,150,2013-01-10 08:57:00
3:16 AM,28.4,21.2,74,30.03,10.0,SE,9.2,17.3,N/A,,Clear,140,2013-01-10 09:16:00
3:37 AM,28.4,21.2,74,30.01,10.0,SE,11.5,17.3,N/A,,Clear,140,2013-01-10 09:37:00
3:56 AM,28.4,21.2,74,30.00,10.0,SE,13.8,20.7,N/A,,Clear,140,2013-01-10 09:56:00
4:16 AM,28.4,21.2,74,29.98,10.0,SSE,10.4,23.0,N/A,,Clear,150,2013-01-10 10:16:00
4:37 AM,28.4,21.2,74,29.97,10.0,SSE,12.7,19.6,N/A,,Clear,150,2013-01-10 10:37:00
4:56 AM,28.4,23.0,80,29.96,10.0,SSE,13.8,21.9,N/A,,Clear,150,2013-01-10 10:56:00
5:16 AM,30.2,23.0,75,29.95,10.0,SSE,8.1,21.9,N/A,,Clear,150,2013-01-10 11:16:00
5:37 AM,30.2,23.0,75,29.96,10.0,SSE,3.5,-,N/A,,Clear,160,2013-01-10 11:37:00
5:56 AM,30.2,24.8,80,29.95,10.0,SSE,5.8,-,N/A,,Clear,150,2013-01-10 11:56:00
6:16 AM,30.2,24.8,80,29.94,10.0,SSE,6.9,-,N/A,,Clear,160,2013-01-10 12:16:00
6:56 AM,32.0,24.8,75,29.92,10.0,SSE,9.2,-,N/A,,Clear,160,2013-01-10 12:56:00
7:16 AM,33.8,24.8,70,29.92,10.0,SSE,6.9,17.3,N/A,,Clear,160,2013-01-10 13:16:00
7:37 AM,33.8,26.6,75,29.91,10.0,SSE,11.5,21.9,N/A,,Clear,160,2013-01-10 13:37:00
7:56 AM,35.6,26.6,70,29.90,10.0,SSE,13.8,21.9,N/A,,Clear,160,2013-01-10 13:56:00
8:17 AM,35.6,26.6,70,29.89,10.0,SSE,13.8,20.7,N/A,,Clear,160,2013-01-10 14:17:00
8:37 AM,37.4,26.6,65,29.89,10.0,SSE,13.8,27.6,N/A,,Clear,160,2013-01-10 14:37:00
8:56 AM,37.4,26.6,65,29.88,10.0,SSE,16.1,28.8,N/A,,Clear,160,2013-01-10 14:56:00
9:17 AM,39.2,26.6,61,29.88,10.0,South,12.7,25.3,N/A,,Clear,170,2013-01-10 15:17:00
9:37 AM,41.0,26.6,57,29.87,10.0,SSE,15.0,21.9,N/A,,Clear,160,2013-01-10 15:37:00
9:56 AM,41.0,26.6,57,29.87,10.0,South,12.7,23.0,N/A,,Clear,170,2013-01-10 15:56:00
10:17 AM,42.8,26.6,53,29.87,10.0,South,11.5,24.2,N/A,,Clear,180,2013-01-10 16:17:00
10:37 AM,44.6,28.4,53,29.87,10.0,South,12.7,23.0,N/A,,Clear,170,2013-01-10 16:37:00
10:56 AM,46.4,26.6,46,29.86,10.0,South,13.8,24.2,N/A,,Clear,170,2013-01-10 16:56:00
11:17 AM,48.2,26.6,43,29.86,10.0,South,12.7,21.9,N/A,,Clear,180,2013-01-10 17:17:00
11:37 AM,48.2,26.6,43,29.86,10.0,South,18.4,27.6,N/A,,Clear,180,2013-01-10 17:37:00
11:56 AM,50.0,24.8,37,29.85,10.0,South,17.3,29.9,N/A,,Clear,180,2013-01-10 17:56:00
12:17 PM,50.0,24.8,37,29.84,10.0,South,12.7,25.3,N/A,,Clear,190,2013-01-10 18:17:00
12:37 PM,51.8,24.8,35,29.83,10.0,South,15.0,33.4,N/A,,Clear,180,2013-01-10 18:37:00
12:56 PM,50.0,24.8,37,29.83,10.0,South,13.8,28.8,N/A,,Clear,190,2013-01-10 18:56:00
1:17 PM,50.0,24.8,37,29.82,10.0,South,13.8,26.5,N/A,,Clear,190,2013-01-10 19:17:00
1:36 PM,50.0,24.8,37,29.81,10.0,South,15.0,27.6,N/A,,Clear,180,2013-01-10 19:36:00
1:56 PM,50.0,24.8,37,29.81,10.0,South,13.8,24.2,N/A,,Clear,170,2013-01-10 19:56:00
2:17 PM,50.0,24.8,37,29.81,10.0,South,13.8,26.5,N/A,,Clear,170,2013-01-10 20:17:00
2:36 PM,50.0,24.8,37,29.81,10.0,South,16.1,25.3,N/A,,Clear,170,2013-01-10 20:36:00
2:56 PM,48.2,24.8,40,29.81,10.0,SSE,10.4,25.3,N/A,,Clear,160,2013-01-10 20:56:00
3:17 PM,48.2,24.8,40,29.81,10.0,South,13.8,29.9,N/A,,Clear,180,2013-01-10 21:17:00
3:36 PM,46.4,24.8,43,29.81,10.0,SSE,11.5,24.2,N/A,,Clear,160,2013-01-10 21:36:00
3:56 PM,46.4,23.0,40,29.82,10.0,SSE,15.0,24.2,N/A,,Mostly Cloudy,160,2013-01-10 21:56:00
4:17 PM,44.6,21.2,39,29.81,10.0,South,12.7,23.0,N/A,,Overcast,170,2013-01-10 22:17:00
4:36 PM,44.6,21.2,39,29.79,10.0,South,11.5,27.6,N/A,,Scattered Clouds,170,2013-01-10 22:36:00
4:56 PM,42.8,23.0,46,29.78,10.0,SSE,10.4,19.6,N/A,,Clear,150,2013-01-10 22:56:00
5:17 PM,42.8,21.2,42,29.77,10.0,SSE,11.5,19.6,N/A,,Clear,150,2013-01-10 23:17:00
5:36 PM,42.8,19.4,39,29.76,10.0,SSE,9.2,21.9,N/A,,Clear,150,2013-01-10 23:36:00
5:57 PM,41.0,21.2,45,29.75,10.0,SSE,11.5,17.3,N/A,,Mostly Cloudy,150,2013-01-10 23:57:00
6:17 PM,41.0,21.2,45,29.75,10.0,SSE,12.7,19.6,N/A,,Overcast,150,2013-01-11 00:17:00
6:36 PM,41.0,19.4,42,29.75,10.0,SSE,13.8,21.9,N/A,,Overcast,160,2013-01-11 00:36:00
6:57 PM,41.0,19.4,42,29.73,10.0,SSE,13.8,21.9,N/A,,Overcast,150,2013-01-11 00:57:00
7:17 PM,41.0,19.4,42,29.73,10.0,SSE,12.7,24.2,N/A,,Scattered Clouds,160,2013-01-11 01:17:00
7:36 PM,41.0,19.4,42,29.72,10.0,SSE,16.1,32.2,N/A,,Scattered Clouds,150,2013-01-11 01:36:00
7:38 PM,41.0,19.4,42,29.71,10.0,SSE,17.3,32.2,N/A,,Mostly Cloudy,150,2013-01-11 01:38:00
11:50 PM,33.8,-9999,N/A,29.59,-9999.0,SSE,6.9,-,N/A,,Unknown,150,2013-01-11 05:50:00
11:57 PM,35.6,30.2,81,29.60,10.0,SSE,8.1,-,N/A,,Unknown,160,2013-01-11 05:57:00